Torna al catalogo

STARLINK-4800

AttivoComunicazioniVLEO
NORAD 53854·PAYLOAD·🇺🇸 United States

Lanciato Sep 19, 2022 da Cape Canaveral Space Force Station

Loading…

Prossimi Passaggi (prossime 24 ore)

TLE

AggiornatoSource: CelesTrak SupGP

Epoca: Sep 15, 2026, 01:58 UTC

1 53854C 22114AN  26258.08243056  .00037864  00000+0  12178-2 0  2582
2 53854  53.1583 144.2875 0001363  80.1266 221.9614 15.31678875    16

Traccia STARLINK-4800 in tempo reale con AllMySat

Download on the App Store